Hourly Weather Avhimki

Today, 4 July, Saturday

Time Temperature Precipitation Wind Pressure Humidity
00:00 +19°C° 0.2 mm 2 mps 743 mmHg 97%
01:00 +18°C° 0.2 mm 2 mps 743 mmHg 97%
02:00 +19°C° 0 mm 1 mps 743 mmHg 98%
03:00 +19°C° 0 mm 1 mps 743 mmHg 98%
04:00 +19°C° 0 mm 1 mps 743 mmHg 97%
05:00 +18°C° 0 mm 2 mps 743 mmHg 97%
06:00 +19°C° 0 mm 2 mps 743 mmHg 95%
07:00 +20°C° 0 mm 2 mps 743 mmHg 92%
08:00 +21°C° 0 mm 2 mps 744 mmHg 89%
09:00 +23°C° 0.5 mm 2 mps 744 mmHg 87%
10:00 +22°C° 0.5 mm 3 mps 744 mmHg 85%
11:00 +24°C° 0.5 mm 3 mps 744 mmHg 84%
12:00 +23°C° 0.3 mm 4 mps 744 mmHg 81%
13:00 +23°C° 0.3 mm 4 mps 744 mmHg 78%
14:00 +25°C° 0.3 mm 4 mps 744 mmHg 75%
15:00 +25°C° 0 mm 3 mps 744 mmHg 75%
16:00 +25°C° 0 mm 3 mps 744 mmHg 76%
17:00 +24°C° 0 mm 3 mps 744 mmHg 76%
18:00 +22°C° 0 mm 3 mps 744 mmHg 79%
19:00 +21°C° 0 mm 2 mps 744 mmHg 82%
20:00 +20°C° 0 mm 2 mps 744 mmHg 86%
21:00 +20°C° 0 mm 1 mps 744 mmHg 87%
22:00 +19°C° 0 mm 1 mps 744 mmHg 88%
23:00 +19°C° 0 mm 1 mps 744 mmHg 90%

Tomorrow, 5 July, Sunday

Time Temperature Precipitation Wind Pressure Humidity
00:00 +18°C° 0 mm 1 mps 744 mmHg 90%
01:00 +18°C° 0 mm 1 mps 744 mmHg 90%
02:00 +18°C° 0 mm 1 mps 744 mmHg 90%
03:00 +18°C° 0 mm 1 mps 744 mmHg 89%
04:00 +18°C° 0 mm 1 mps 744 mmHg 89%
05:00 +16°C° 0 mm 0 mps 744 mmHg 89%
06:00 +18°C° 0 mm 0 mps 744 mmHg 85%
07:00 +21°C° 0 mm 1 mps 744 mmHg 81%
08:00 +22°C° 0 mm 1 mps 744 mmHg 77%
09:00 +23°C° 0.3 mm 1 mps 744 mmHg 75%
10:00 +24°C° 0.3 mm 2 mps 744 mmHg 73%
11:00 +25°C° 0.3 mm 2 mps 744 mmHg 72%
12:00 +25°C° 0.6 mm 2 mps 744 mmHg 71%
13:00 +25°C° 0.6 mm 3 mps 743 mmHg 71%
14:00 +26°C° 0.6 mm 3 mps 743 mmHg 70%
15:00 +26°C° 0.1 mm 3 mps 743 mmHg 71%
16:00 +26°C° 0.1 mm 3 mps 743 mmHg 71%
17:00 +26°C° 0.1 mm 3 mps 742 mmHg 72%
18:00 +24°C° 0 mm 2 mps 742 mmHg 75%
19:00 +23°C° 0 mm 2 mps 742 mmHg 78%
20:00 +21°C° 0 mm 1 mps 742 mmHg 81%
21:00 +20°C° 0 mm 2 mps 742 mmHg 84%
22:00 +19°C° 0 mm 2 mps 742 mmHg 86%
23:00 +18°C° 0 mm 2 mps 743 mmHg 88%

Day after tomorrow, 6 July, Monday

Time Temperature Precipitation Wind Pressure Humidity
00:00 +18°C° 0 mm 2 mps 742 mmHg 90%
01:00 +18°C° 0 mm 2 mps 742 mmHg 91%
02:00 +17°C° 0 mm 2 mps 742 mmHg 92%
03:00 +18°C° 0 mm 2 mps 742 mmHg 92%
04:00 +18°C° 0 mm 2 mps 742 mmHg 93%
05:00 +18°C° 0 mm 3 mps 742 mmHg 93%
06:00 +19°C° 0 mm 3 mps 742 mmHg 90%
07:00 +21°C° 0 mm 3 mps 742 mmHg 86%
08:00 +22°C° 0 mm 3 mps 742 mmHg 83%
09:00 +23°C° 0 mm 4 mps 742 mmHg 80%
10:00 +25°C° 0 mm 4 mps 742 mmHg 77%
11:00 +26°C° 0 mm 4 mps 741 mmHg 74%
12:00 +27°C° 0.1 mm 5 mps 741 mmHg 73%
13:00 +27°C° 0.1 mm 5 mps 741 mmHg 72%
14:00 +27°C° 0.1 mm 5 mps 741 mmHg 72%
15:00 +27°C° 0.5 mm 4 mps 740 mmHg 75%
16:00 +26°C° 0.5 mm 4 mps 740 mmHg 78%
17:00 +26°C° 0.5 mm 3 mps 740 mmHg 82%
18:00 +25°C° 0.7 mm 3 mps 740 mmHg 83%
19:00 +24°C° 0.7 mm 2 mps 740 mmHg 85%
20:00 +23°C° 0.7 mm 2 mps 740 mmHg 87%
21:00 +21°C° 0.4 mm 2 mps 740 mmHg 88%
22:00 +20°C° 0.4 mm 2 mps 739 mmHg 89%
23:00 +20°C° 0.4 mm 2 mps 739 mmHg 91%

7 July, Tuesday

Time Temperature Precipitation Wind Pressure Humidity
00:00 +19°C° 0.3 mm 2 mps 739 mmHg 91%
01:00 +20°C° 0.3 mm 1 mps 739 mmHg 92%
02:00 +20°C° 0.3 mm 1 mps 739 mmHg 93%
03:00 +20°C° 0.8 mm 1 mps 739 mmHg 94%
04:00 +20°C° 0.8 mm 1 mps 739 mmHg 95%
05:00 +20°C° 0.8 mm 1 mps 739 mmHg 96%
06:00 +20°C° 0.8 mm 2 mps 739 mmHg 93%
07:00 +21°C° 0.8 mm 2 mps 739 mmHg 90%
08:00 +23°C° 0.8 mm 2 mps 739 mmHg 87%
09:00 +23°C° 0.8 mm 2 mps 739 mmHg 86%
10:00 +22°C° 0.8 mm 3 mps 740 mmHg 86%
11:00 +22°C° 0.8 mm 4 mps 740 mmHg 86%
12:00 +22°C° 0.2 mm 4 mps 740 mmHg 85%
13:00 +22°C° 0.2 mm 4 mps 739 mmHg 85%
14:00 +22°C° 0.2 mm 5 mps 739 mmHg 84%
15:00 +22°C° 0.1 mm 4 mps 739 mmHg 84%
16:00 +21°C° 0.1 mm 4 mps 739 mmHg 85%
17:00 +21°C° 0.1 mm 4 mps 740 mmHg 85%
18:00 +20°C° 0 mm 4 mps 740 mmHg 87%
19:00 +19°C° 0 mm 4 mps 740 mmHg 89%
20:00 +19°C° 0 mm 4 mps 740 mmHg 91%
21:00 +18°C° 0.3 mm 4 mps 740 mmHg 91%
22:00 +16°C° 0.3 mm 5 mps 740 mmHg 90%
23:00 +16°C° 0.3 mm 5 mps 740 mmHg 89%

8 July, Wednesday

Time Temperature Precipitation Wind Pressure Humidity
00:00 +15°C° 1.6 mm 6 mps 740 mmHg 91%
01:00 +14°C° 1.6 mm 6 mps 739 mmHg 92%
02:00 +14°C° 1.6 mm 7 mps 739 mmHg 93%
03:00 +12°C° 2.3 mm 7 mps 739 mmHg 94%
04:00 +12°C° 2.3 mm 7 mps 739 mmHg 94%
05:00 +11°C° 2.3 mm 7 mps 739 mmHg 95%
06:00 +11°C° 1.6 mm 7 mps 739 mmHg 95%
07:00 +11°C° 1.6 mm 7 mps 739 mmHg 95%
08:00 +11°C° 1.6 mm 7 mps 739 mmHg 95%
09:00 +11°C° 1.7 mm 6 mps 739 mmHg 94%
10:00 +11°C° 1.7 mm 6 mps 740 mmHg 94%
11:00 +12°C° 1.7 mm 5 mps 740 mmHg 93%
12:00 +13°C° 0.7 mm 5 mps 740 mmHg 89%
13:00 +14°C° 0.7 mm 5 mps 740 mmHg 86%
14:00 +15°C° 0.7 mm 5 mps 741 mmHg 82%
15:00 +15°C° 0.1 mm 4 mps 741 mmHg 80%
16:00 +17°C° 0.1 mm 4 mps 741 mmHg 78%
17:00 +17°C° 0.1 mm 4 mps 741 mmHg 77%
18:00 +16°C° 0.1 mm 3 mps 741 mmHg 81%
19:00 +14°C° 0.1 mm 3 mps 741 mmHg 85%
20:00 +13°C° 0.1 mm 3 mps 741 mmHg 89%
21:00 +12°C° 0 mm 3 mps 741 mmHg 89%
22:00 +11°C° 0 mm 4 mps 741 mmHg 90%
23:00 +11°C° 0 mm 4 mps 741 mmHg 91%

9 July, Thursday

Time Temperature Precipitation Wind Pressure Humidity
00:00 +10°C° 0 mm 4 mps 741 mmHg 92%
01:00 +10°C° 0 mm 4 mps 742 mmHg 94%
02:00 +8°C° 0 mm 4 mps 742 mmHg 95%
03:00 +8°C° 0 mm 4 mps 742 mmHg 95%
04:00 +8°C° 0 mm 4 mps 742 mmHg 95%
05:00 +8°C° 0 mm 4 mps 742 mmHg 95%
06:00 +10°C° 0 mm 4 mps 743 mmHg 92%
07:00 +12°C° 0 mm 4 mps 743 mmHg 88%
08:00 +13°C° 0 mm 5 mps 743 mmHg 85%
09:00 +14°C° 0 mm 5 mps 743 mmHg 80%
10:00 +16°C° 0 mm 5 mps 743 mmHg 75%
11:00 +17°C° 0 mm 5 mps 744 mmHg 69%
12:00 +17°C° 0 mm 5 mps 744 mmHg 68%
13:00 +19°C° 0 mm 5 mps 744 mmHg 68%
14:00 +20°C° 0 mm 5 mps 744 mmHg 67%
15:00 +19°C° 0 mm 5 mps 744 mmHg 71%
16:00 +18°C° 0 mm 4 mps 744 mmHg 76%
17:00 +17°C° 0 mm 4 mps 743 mmHg 80%
18:00 +16°C° 0 mm 3 mps 743 mmHg 84%
19:00 +14°C° 0 mm 3 mps 743 mmHg 88%
20:00 +14°C° 0 mm 3 mps 743 mmHg 92%
21:00 +13°C° 0 mm 3 mps 743 mmHg 93%
22:00 +13°C° 0 mm 3 mps 743 mmHg 93%
23:00 +13°C° 0 mm 2 mps 743 mmHg 94%
Show more